Regional Weather Roundup
Issued by NWS

Home | Current Version | Previous Version | Graphics & Text | Print | Product List | Glossary Off
Versions: 1 2 3 4 5 6 7 8 9 10 11 12 13 14 15 16 17 18 19 20 21 22 23 24 25 26 27 28 29 30 31 32 33 34 35 36 37 38 39 40 41 42 43 44 45 46 47 48 49 50

000
ASUS43 KOAX 200610
RWRNE

WEATHER ROUNDUP FOR NEBRASKA
NATIONAL WEATHER SERVICE OMAHA NE
100 AM CDT SUN APR 20 2014

NOTES: SATELLITE DATA IS BEING USED TO AUGMENT CLOUD COVER ABOVE
       12000 FEET.
       "FAIR" INDICATES FEW OR NO CLOUDS BELOW 12,000 FEET WITH NO
       SIGNIFICANT WEATHER AND/OR OBSTRUCTIONS TO VISIBILITY.

  * THESE STATIONS DO NOT REPORT WEATHER SUCH AS RAIN...SNOW OR FOG.

NEZ001>004-019>022-054>056-200700-
NEBRASKA PANHANDLE

CITY           SKY/WX    TMP DP  RH WIND       PRES   REMARKS
SCOTTSBLUFF    CLEAR     48  34  58 E8        30.02R
6HR MIN TEMP:  46; 6HR MAX TEMP:  66;

ALLIANCE       CLEAR     42  32  67 SE12      30.01F
6HR MIN TEMP:  40; 6HR MAX TEMP:  63;

CHADRON        CLEAR     45  35  68 CALM      29.98F
6HR MIN TEMP:  41; 6HR MAX TEMP:  63;

KIMBALL        PTCLDY    45  35  68 SW7       30.05S
SIDNEY         MOCLDY    44  34  67 SW12      30.06R
6HR MIN TEMP:  41; 6HR MAX TEMP:  63;

$$

NEZ057>060-069>072-079>082-200700-
SOUTHWEST NEBRASKA

CITY           SKY/WX    TMP DP  RH WIND       PRES   REMARKS
NORTH PLATTE   MOCLDY    50  43  77 CALM      30.01R
6HR MIN TEMP:  48; 6HR MAX TEMP:  67;

IMPERIAL       MOCLDY    47  41  80 CALM      30.01F
6HR MIN TEMP:  47; 6HR MAX TEMP:  67;

LEXINGTON      MOCLDY    55  49  80 NW7       30.00R
MCCOOK         PTCLDY    55  50  83 N9        29.98F
6HR MIN TEMP:  54; 6HR MAX TEMP:  68; 6HR PCP:  0.06;

OGALLALA       PTCLDY    47  39  74 SW3       30.02R
$$

NEZ005>010-023>029-035>040-094-200700-
NORTH CENTRAL NEBRASKA

CITY           SKY/WX    TMP DP  RH WIND       PRES   REMARKS
VALENTINE      CLEAR     39  22  50 NW3       30.02F
6HR MIN TEMP:  39; 6HR MAX TEMP:  65;

AINSWORTH      CLEAR     47  28  45 NE5       30.01F
BROKEN BOW     PTCLDY    51  40  65 N5        29.99F
6HR MIN TEMP:  49; 6HR MAX TEMP:  65;

O`NEILL        PTCLDY    53  31  42 NE6       30.00F
ORD            CLEAR     55  40  56 N7        29.97F
6HR MIN TEMP:  55; 6HR MAX TEMP:  70;

THEDFORD       MOCLDY    52  37  57 CALM      30.03R
$$

NEZ041-046>049-061>064-073>077-083>087-200700-
SOUTH CENTRAL NEBRASKA

CITY           SKY/WX    TMP DP  RH WIND       PRES   REMARKS
GRAND ISLAND   FAIR      57  49  74 SE8       29.95S
6HR MIN TEMP:  57; 6HR MAX TEMP:  75;

AURORA         FAIR      63  49  61 S8        29.95S
HASTINGS       FAIR      63  48  58 S3        29.95S
6HR MIN TEMP:  63; 6HR MAX TEMP:  78;

HEBRON         FAIR      65  49  55 S13       29.97S
HOLDREGE       FAIR      58  50  74 N8        29.97R
KEARNEY *      FAIR      59  48  67 N8        29.96F
YORK           FAIR      64  48  55 S14       29.95F
$$

NEZ011>018-030>034-042>045-200700-
NORTHEAST NEBRASKA

CITY           SKY/WX    TMP DP  RH WIND       PRES   REMARKS
NORFOLK        FAIR      59  44  57 CALM      29.97F
6HR MIN TEMP:  59; 6HR MAX TEMP:  72;

ALBION         FAIR      58  44  59 NE10      29.97S
BLAIR          FAIR      66  43  43 S17       29.98F
COLUMBUS *     FAIR      61  46  59 S10       29.97S
FREMONT        FAIR      64  44  48 SE10      29.98S
TEKAMAH        CLOUDY    68  44  42 S14       29.97F
6HR MIN TEMP:  68; 6HR MAX TEMP:  78;

$$

NEZ050>053-065>068-078-088>093-200700-
SOUTHEAST NEBRASKA

CITY           SKY/WX    TMP DP  RH WIND       PRES   REMARKS
LINCOLN        FAIR      66  44  45 S16       29.97F
6HR MIN TEMP:  66; 6HR MAX TEMP:  79;

OMAHA EPPLEY   MOCLDY    67  44  43 S16       29.99F
6HR MIN TEMP:  67; 6HR MAX TEMP:  78;

BEATRICE       FAIR      64  45  48 S14       29.99F
FALLS CITY     FAIR      59  46  62 S9        30.04F
6HR MIN TEMP:  58; 6HR MAX TEMP:  76;

NEBRASKA CITY  FAIR      65  44  45 S20G26    30.01S
PLATTSMOUTH    FAIR      67  41  38 S18       30.01R
$$

NEZ044-045-051>053-067-200700-
OMAHA AREA

CITY           SKY/WX    TMP DP  RH WIND       PRES   REMARKS
OMAHA EPPLEY   MOCLDY    67  44  43 S16       29.99F
6HR MIN TEMP:  67; 6HR MAX TEMP:  78;

BLAIR          FAIR      66  43  43 S17       29.98F
FREMONT        FAIR      64  44  48 SE10      29.98S
MILLARD        FAIR      66  44  44 SE10      29.99S
OFFUTT AFB     FAIR      65  45  49 SE12      30.00S
PLATTSMOUTH    FAIR      67  41  38 S18       30.01R
WAHOO          FAIR      63  43  47 SE14      29.97S
$$



USA.gov is the U.S. government's official web portal to all federal, state and local government web resources and services.